Погода в Регите

Россия / Чеченская Республика     43°05′46″N   46°07′28″E
темп.,
°C
ветер,
м/с
пор.,
м/с
влажн.,
%
обл.,
%
осадки,
мм/ч
давл.,
гПа
погр.,
м
9 мая, вс
вс900:00+12ю22680 0.0 101126
03:00+12ююв33513 0.0 100931
06:00+13ююз225898 0.0 100929
09:00+18ссз2250100 0.0 1008395
12:00+20ссз32497 0.0 1006983
15:00+19сз4461100 0.1 10061317
18:00+9зсз41098100 6.8 1013701
21:00+5з51097100 15.5 1020886
10 мая, пн
пн1000:00+4з4998100 2.6 1022847
03:00+3зюз3796100 6.1 1023641
06:00+3зюз2593100 1.9 1022481
09:00+5зюз3683100 4.6 1023837
12:00+7сз346398 0.3 10211240
15:00+8сз226397 0.8 10201170
18:00+5ю2387100 0.9 1021208
21:00+4ю229291 1.1 102293
11 мая, вт
вт1100:00+3ююв118984 0.1 102013
03:00+4вюв118686 0.1 102067
06:00+4вюв128215 0.0 1020104
09:00+10ссв225946 0.0 1017968
12:00+13ссв335291 0.0 10151529
15:00+12ссв3362100 0.0 1015994
18:00+11сз127699 0.0 1017123
21:00+6ю229119 0.0 101914
12 мая, ср
ср1200:00+6ю21903 0.0 101812
03:00+5ю118914 0.0 101812
06:00+8ююв00800 0.0 101769
09:00+13с21670 0.0 1016631
12:00+16с326031 0.0 1016988
15:00+17с326139 0.0 10161047
18:00+14с12782 0.0 1016147
21:00+10ю22913 0.0 101715
13 мая, чт
чт1300:00+10ююв22874 0.0 101616
03:00+10ю22753 0.0 101615
06:00+12ююв11694 0.0 101630
09:00+18ссв21573 0.0 1016485
12:00+22с32510 0.0 1015809
15:00+22с32551 0.1 1014893
18:00+18ссз127912 0.3 1016134
21:00+14ю11897 0.3 101712